Custer, SD

2:43 AM MDT on May 28, 2017 (GMT -0600)
Custer County

Weather History for KCUT - June, 2014

Change the Weather History Date:

Sunday, June 1, 2014

  Actual Average Record
Temperature  
Mean Temperature 53 °F 53 °F  
Max Temperature 63 °F 65 °F 82 °F (1972)
Min Temperature 42 °F 42 °F 27 °F (1951)
Degree Days  
Heating Degree Days 12 12  
Month to date heating degree days 12 12  
Since 1 June heating degree days 12 12  
Since 1 July heating degree days 8172 8181  
Cooling Degree Days 0 0  
Month to date cooling degree days 0 0  
Year to date cooling degree days 4 1  
Since 1 June cooling degree days 0 0  
Growing Degree Days 2 (Base 50)    
Moisture  
Dew Point 46 °F    
Average Humidity 75    
Maximum Humidity 93    
Minimum Humidity 57    
Precipitation  
Precipitation 0.24 in 0.12 in 1.93 in (1936)
Month to date precipitation 0.24 0.12  
Year to date precipitation 7.96 7.23  
Sea Level Pressure  
Sea Level Pressure 29.88 in    
Wind  
Wind Speed 4 mph (NNW)    
Max Wind Speed 22 mph    
Max Gust Speed 33 mph    
Visibility 9 miles    
Events Rain , Thunderstorm    
T = Trace of Precipitation, MM = Missing Value Source: NWS Daily Summary

Daily Weather History Graph

Daily Weather History Graph

Search for Another Location

Airport or City:

Trip Planner

Search our weather history database for the weather conditions in past years. The results will help you decide how hot, cold, wet, or windy it might be!

Date:

Astronomy

Jun. 01, 2014 Rise Set
Actual Time 5:15 AM MDT 8:29 PM MDT
Civil Twilight 4:40 AM MDT 9:04 PM MDT
Nautical Twilight 3:55 AM MDT 9:50 PM MDT
Astronomical Twilight 2:59 AM MDT 10:45 PM MDT
Moon 8:53 AM MDT (6/1) 11:21 PM MDT (6/1)
Length of Visible Light 16h 24m
Length of Day
15h 13m
Waxing Crescent, 15% of the Moon is Illuminated
Jun 1
Waxing Crescent
Jun 5
First Quarter
Jun 12
Full
Jun 19
Last Quarter
Jun 27
New

Hourly Weather History & Observations

Time (MDT) Temp. Windchill Dew Point Humidity Pressure Visibility Wind Dir Wind Speed Gust Speed Precip Events Conditions
12:53 AM 50.0 °F - 46.9 °F 89% 29.83 in 10.0 mi NW 4.6 mph - N/A   Clear
1:53 AM 48.0 °F - 46.0 °F 93% 29.81 in 10.0 mi Calm Calm - N/A   Clear
2:53 AM 46.9 °F - 45.0 °F 93% 29.80 in 10.0 mi NNW 3.5 mph - N/A   Clear
3:53 AM 46.0 °F - 44.1 °F 93% 29.78 in 10.0 mi Calm Calm - N/A   Clear
4:53 AM 48.9 °F - 44.1 °F 83% 29.79 in 10.0 mi Variable 3.5 mph - N/A   Scattered Clouds
5:53 AM 50.0 °F - 45.0 °F 83% 29.81 in 10.0 mi NE 3.5 mph - N/A   Clear
6:53 AM 53.1 °F - 46.9 °F 80% 29.79 in 10.0 mi NNW 5.8 mph - N/A   Clear
7:53 AM 55.9 °F - 48.0 °F 75% 29.81 in 10.0 mi Calm Calm - N/A   Mostly Cloudy
8:53 AM 57.0 °F - 48.0 °F 72% 29.81 in 10.0 mi Variable 3.5 mph - N/A   Overcast
9:53 AM 61.0 °F - 46.9 °F 60% 29.81 in 10.0 mi ENE 4.6 mph - N/A   Mostly Cloudy
10:31 AM 61.0 °F - 45.0 °F 56% 29.95 in 10.0 mi ENE 4.6 mph - N/A Thunderstorm Overcast
10:53 AM 57.9 °F - 46.0 °F 65% 29.83 in 10.0 mi South 4.6 mph - 0.00 in Thunderstorm Overcast
11:07 AM 50.0 °F - 45.0 °F 83% 30.00 in 1.5 mi WNW 10.4 mph - 0.00 in Rain , Thunderstorm Heavy Thunderstorms and Rain
11:22 AM 48.9 °F - 46.0 °F 90% 30.01 in 3.0 mi Variable 5.8 mph - 0.18 in Rain , Thunderstorm Thunderstorms and Rain
11:25 AM 50.0 °F - 46.9 °F 89% 30.00 in 2.5 mi Variable 4.6 mph - 0.19 in Rain , Thunderstorm Rain
11:32 AM 50.0 °F - 46.9 °F 89% 30.00 in 4.0 mi NNW 6.9 mph - 0.20 in Rain , Thunderstorm Light Rain
11:53 AM 54.0 °F - 50.0 °F 86% 29.87 in 9.0 mi Variable 4.6 mph - 0.22 in Rain Light Rain
12:53 PM 59.0 °F - 48.9 °F 69% 29.83 in 10.0 mi NNE 9.2 mph - 0.00 in   Clear
1:53 PM 62.1 °F - 48.9 °F 62% 29.82 in 10.0 mi Variable 3.5 mph - N/A   Partly Cloudy
2:53 PM 57.9 °F - 51.1 °F 78% 29.83 in 3.0 mi Variable 3.5 mph - 0.00 in Rain , Thunderstorm Light Thunderstorms and Rain
3:27 PM 57.2 °F - 48.2 °F 72% 29.95 in 10.0 mi SW 4.6 mph - N/A Thunderstorm Overcast
3:53 PM 55.0 °F - 50.0 °F 83% 29.88 in 10.0 mi SSW 5.8 mph - 0.01 in Rain , Thunderstorm Light Rain
4:04 PM 54.0 °F - 48.9 °F 83% 29.98 in 8.0 mi West 15.0 mph 26.5 mph 0.00 in Rain Rain
4:22 PM 55.9 °F - 44.1 °F 64% 29.98 in 10.0 mi WNW 12.7 mph 33.4 mph 0.01 in   Overcast
4:53 PM 57.0 °F - 42.1 °F 57% 29.88 in 10.0 mi NNW 12.7 mph 20.7 mph 0.01 in   Mostly Cloudy
5:53 PM 57.9 °F - 44.1 °F 60% 29.86 in 10.0 mi Variable 6.9 mph - N/A   Clear
6:53 PM 57.0 °F - 43.0 °F 59% 29.85 in 10.0 mi North 8.1 mph - N/A   Clear
7:53 PM 55.9 °F - 44.1 °F 64% 29.88 in 10.0 mi NNW 3.5 mph - N/A   Partly Cloudy
9:53 PM 48.9 °F - 41.0 °F 74% 29.92 in 10.0 mi NNW 4.6 mph - N/A   Clear
10:53 PM 43.0 °F - 39.9 °F 89% 29.95 in 10.0 mi Calm Calm - N/A   Clear
11:53 PM 46.0 °F 43.9 °F 39.9 °F 79% 29.96 in 10.0 mi NNW 4.6 mph - N/A   Clear